Regional Weather Roundup
Issued by NWS Northern Indiana

Home | Current Version | Previous Version | Graphics & Text | Print | Product List | Glossary On
Versions: 1 2 3 4 5 6 7 8 9 10 11 12 13 14 15 16 17 18 19 20 21 22 23 24 25 26 27 28 29 30 31 32 33 34 35 36 37 38 39 40 41 42 43 44 45 46 47 48 49 50
000
ASUS43 KIWX 111100
RWRIWX

KIWX WEATHER ROUNDUP
NATIONAL WEATHER SERVICE NORTHERN INDIANA
700 AM EDT FRI JUL 11 2014

NOTE: "FAIR" INDICATES FEW OR NO CLOUDS BELOW 12,000 FEET WITH NO
SIGNIFICANT WEATHER AND/OR OBSTRUCTIONS TO VISIBILITY.

* THESE STATIONS ARE NOT UNDER NWS QUALITY CONTROL. THEY ALSO MAY NOT
  REPORT WEATHER SUCH AS PRECIPITATION OR FOG.

INZ001>027-111200-
NORTHERN INDIANA

CITY           SKY/WX    TMP DP  RH WIND       PRES   REMARKS
GARY*          PTCLDY    55  54  94 CALM      30.20S
VALPARAISO     PTCLDY    53  51  93 NE5       30.21S
SOUTH BEND     PTCLDY    57  52  83 CALM      30.22S
GOSHEN         CLEAR     55  53  93 CALM      30.21S
ANGOLA*          N/A     55  54  94 CALM      30.23S VSB 1/2
FORT WAYNE     PTCLDY    56  53  90 CALM      30.22R
PERU/GRISSOM   CLEAR     54  54 100 E1        30.20S

$$
INZ028>050-111200-
CENTRAL INDIANA

CITY           SKY/WX    TMP DP  RH WIND       PRES   REMARKS
LAFAYETTE      PTCLDY    54  54 100 CALM      30.20R
KOKOMO*        CLEAR     54  48  82 CALM      30.21S
MUNCIE*        CLEAR     56  53  90 CALM      30.21S
INDIANAPOLIS   PTCLDY    61  54  77 NE6       30.19R

$$
MIZ043>046-050>051-056>058-064>065-071>073-077>080-111200-
SOUTHWEST LOWER MICHIGAN

CITY           SKY/WX    TMP DP  RH WIND       PRES   REMARKS
BATTLE CREEK   CLEAR     57  54  89 CALM      30.23S
BENTON HARBOR  PTCLDY    53  52  96 NE3       30.20S
COLDWATER*     CLEAR     55  54  97 CALM      30.23R FOG
HILLSDALE*     CLEAR     55  55 100 CALM      30.24R FOG
HOLLAND        PTCLDY    58  54  86 CALM      30.21S
GRAND RAPIDS   PTCLDY    56  53  90 CALM      30.22S
KALAMAZOO      CLEAR     53  52  96 CALM      30.23S
STURGIS*       CLEAR     55  54  94 CALM      30.22S
THREE RIVERS*  FAIR      55  54  99 CALM      30.23S

$$
OHZ001>008-015>018-024>025-111200-
NORTHWEST OHIO

CITY           SKY/WX    TMP DP  RH WIND       PRES   REMARKS
DEFIANCE       CLEAR     58  55  90 CALM      30.23R FOG
FINDLAY        CLEAR     59  56  89 CALM      30.21R
TOLEDO EXPRESS CLEAR     58  57  97 CALM      30.22R FOG
TOLEDO METCALF CLEAR     60  56  86 W3        30.23R
LIMA           CLEAR     59  56  89 CALM      30.22R FOG

$$
&&


USA.gov is the U.S. government's official web portal to all federal, state and local government web resources and services.